Time,TemperatureF,DewpointF,PressureIn,WindDirection,WindDirectionDegrees,WindSpeedMPH,WindSpeedGustMPH,Humidity,HourlyPrecipIn,Conditions,Clouds,dailyrainin,SoftwareType,DateUTC
2013-06-21 00:00:00,47.1,45.0,29.97,NNE,15,2.0,-999.0,91,-99.99,,,0.00,weatherlink.com 1.10,2013-06-21 07:00:00,
2013-06-21 00:15:00,47.3,45.0,29.97,NNE,16,2.0,-999.0,92,-99.99,,,0.00,weatherlink.com 1.10,2013-06-21 07:15:00,
2013-06-21 00:29:00,47.7,46.0,29.97,North,5,3.0,-999.0,92,-99.99,,,0.00,weatherlink.com 1.10,2013-06-21 07:29:00,
2013-06-21 00:44:00,48.2,46.0,29.96,NNE,24,3.0,-999.0,93,-99.99,,,0.00,weatherlink.com 1.10,2013-06-21 07:44:00,
2013-06-21 00:59:00,48.8,47.0,29.97,NNW,348,3.0,-999.0,93,-99.99,,,0.00,weatherlink.com 1.10,2013-06-21 07:59:00,
2013-06-21 01:13:00,48.8,47.0,29.96,North,355,5.0,-999.0,93,-99.99,,,0.00,weatherlink.com 1.10,2013-06-21 08:13:00,
2013-06-21 01:29:00,48.7,47.0,29.96,NNE,24,2.0,-999.0,92,-99.99,,,0.00,weatherlink.com 1.10,2013-06-21 08:29:00,
2013-06-21 01:44:00,48.8,47.0,29.96,NNE,19,3.0,-999.0,92,-99.99,,,0.00,weatherlink.com 1.10,2013-06-21 08:44:00,
2013-06-21 01:59:00,48.8,47.0,29.95,NNE,28,5.0,-999.0,92,-99.99,,,0.00,weatherlink.com 1.10,2013-06-21 08:59:00,
2013-06-21 02:14:00,48.9,47.0,29.95,North,5,3.0,-999.0,92,-99.99,,,0.00,weatherlink.com 1.10,2013-06-21 09:14:00,
2013-06-21 02:28:00,48.8,47.0,29.95,North,350,4.0,-999.0,92,-99.99,,,0.00,weatherlink.com 1.10,2013-06-21 09:28:00,
2013-06-21 02:43:00,48.5,46.0,29.95,NE,40,4.0,-999.0,91,-99.99,,,0.00,weatherlink.com 1.10,2013-06-21 09:43:00,
2013-06-21 02:59:00,48.4,46.0,29.95,North,355,4.0,-999.0,91,-99.99,,,0.00,weatherlink.com 1.10,2013-06-21 09:59:00,
2013-06-21 03:14:00,48.8,47.0,29.95,North,360,5.0,-999.0,92,-99.99,,,0.00,weatherlink.com 1.10,2013-06-21 10:14:00,
2013-06-21 03:28:00,49.1,47.0,29.95,North,11,3.0,-999.0,91,-99.99,,,0.00,weatherlink.com 1.10,2013-06-21 10:28:00,
2013-06-21 03:45:00,48.7,46.0,29.95,NNE,31,3.0,-999.0,90,-99.99,,,0.00,weatherlink.com 1.10,2013-06-21 10:45:00,
2013-06-21 03:59:00,48.4,46.0,29.95,North,5,4.0,-999.0,91,-99.99,,,0.00,weatherlink.com 1.10,2013-06-21 10:59:00,
2013-06-21 04:14:00,48.3,46.0,29.95,NNE,30,5.0,-999.0,91,-99.99,,,0.00,weatherlink.com 1.10,2013-06-21 11:14:00,
2013-06-21 04:30:00,48.1,46.0,29.95,North,360,2.0,-999.0,91,-99.99,,,0.00,weatherlink.com 1.10,2013-06-21 11:30:00,
2013-06-21 04:44:00,47.9,46.0,29.95,NE,44,4.0,-999.0,91,-99.99,,,0.00,weatherlink.com 1.10,2013-06-21 11:44:00,
2013-06-21 05:00:00,48.0,46.0,29.95,NNE,22,3.0,-999.0,91,-99.99,,,0.00,weatherlink.com 1.10,2013-06-21 12:00:00,
2013-06-21 05:13:00,48.1,46.0,29.95,North,360,4.0,-999.0,91,-99.99,,,0.00,weatherlink.com 1.10,2013-06-21 12:13:00,
2013-06-21 05:29:00,48.3,46.0,29.96,NW,316,7.0,-999.0,91,-99.99,,,0.00,weatherlink.com 1.10,2013-06-21 12:29:00,
2013-06-21 05:44:00,48.2,46.0,29.96,NNE,30,4.0,-999.0,91,-99.99,,,0.00,weatherlink.com 1.10,2013-06-21 12:44:00,
2013-06-21 05:59:00,48.0,46.0,29.96,North,9,5.0,-999.0,91,-99.99,,,0.00,weatherlink.com 1.10,2013-06-21 12:59:00,
2013-06-21 06:14:00,48.0,46.0,29.97,North,5,3.0,-999.0,91,-99.99,,,0.00,weatherlink.com 1.10,2013-06-21 13:14:00,
2013-06-21 06:30:00,48.0,46.0,29.97,NE,35,3.0,-999.0,91,-99.99,,,0.00,weatherlink.com 1.10,2013-06-21 13:30:00,
2013-06-21 06:44:00,48.1,46.0,29.97,NNW,346,3.0,-999.0,91,-99.99,,,0.00,weatherlink.com 1.10,2013-06-21 13:44:00,
2013-06-21 06:59:00,48.8,46.0,29.97,NW,319,5.0,-999.0,91,-99.99,,,0.00,weatherlink.com 1.10,2013-06-21 13:59:00,
2013-06-21 07:14:00,49.7,47.0,29.98,North,355,2.0,-999.0,90,-99.99,,,0.00,weatherlink.com 1.10,2013-06-21 14:14:00,
2013-06-21 07:28:00,50.6,48.0,29.98,NE,42,2.0,-999.0,90,-99.99,,,0.00,weatherlink.com 1.10,2013-06-21 14:28:00,
2013-06-21 07:44:00,51.5,49.0,29.98,NNW,346,7.0,-999.0,90,-99.99,,,0.00,weatherlink.com 1.10,2013-06-21 14:44:00,
2013-06-21 07:58:00,51.8,48.0,29.98,North,355,3.0,-999.0,88,-99.99,,,0.00,weatherlink.com 1.10,2013-06-21 14:58:00,
2013-06-21 08:14:00,52.6,49.0,29.98,NNE,13,5.0,-999.0,88,-99.99,,,0.00,weatherlink.com 1.10,2013-06-21 15:14:00,
2013-06-21 08:29:00,53.4,49.0,29.98,NW,309,8.0,-999.0,86,-99.99,,,0.00,weatherlink.com 1.10,2013-06-21 15:29:00,
2013-06-21 08:45:00,54.0,50.0,29.98,NNW,335,8.0,-999.0,86,-99.99,,,0.00,weatherlink.com 1.10,2013-06-21 15:45:00,
2013-06-21 09:00:00,55.0,50.0,29.98,NE,41,4.0,-999.0,84,-99.99,,,0.00,weatherlink.com 1.10,2013-06-21 16:00:00,
2013-06-21 09:14:00,55.6,50.0,29.98,NNW,332,14.0,-999.0,82,-99.99,,,0.00,weatherlink.com 1.10,2013-06-21 16:14:00,
2013-06-21 09:29:00,55.5,50.0,29.98,NW,324,11.0,-999.0,83,-99.99,,,0.00,weatherlink.com 1.10,2013-06-21 16:29:00,
2013-06-21 09:44:00,56.3,52.0,29.98,NNW,348,15.0,-999.0,84,-99.99,,,0.00,weatherlink.com 1.10,2013-06-21 16:44:00,
2013-06-21 09:59:00,56.2,51.0,29.98,NW,307,11.0,-999.0,83,-99.99,,,0.00,weatherlink.com 1.10,2013-06-21 16:59:00,
2013-06-21 10:14:00,56.5,52.0,29.98,North,355,14.0,-999.0,84,-99.99,,,0.00,weatherlink.com 1.10,2013-06-21 17:14:00,
2013-06-21 10:29:00,56.9,52.0,29.98,NNW,330,16.0,-999.0,82,-99.99,,,0.00,weatherlink.com 1.10,2013-06-21 17:29:00,
2013-06-21 10:45:00,56.9,52.0,29.98,NE,39,9.0,-999.0,84,-99.99,,,0.00,weatherlink.com 1.10,2013-06-21 17:45:00,
2013-06-21 10:59:00,56.4,51.0,29.99,NNW,348,13.0,-999.0,83,-99.99,,,0.00,weatherlink.com 1.10,2013-06-21 17:59:00,
2013-06-21 11:29:00,57.7,52.0,29.99,North,355,5.0,-999.0,82,-99.99,,,0.00,weatherlink.com 1.10,2013-06-21 18:29:00,
2013-06-21 11:59:00,58.5,52.0,29.99,NNW,343,19.0,-999.0,80,-99.99,,,0.00,weatherlink.com 1.10,2013-06-21 18:59:00,
2013-06-21 12:14:00,58.0,53.0,29.99,NW,317,10.0,-999.0,82,-99.99,,,0.00,weatherlink.com 1.10,2013-06-21 19:14:00,
2013-06-21 12:29:00,58.3,53.0,29.99,North,5,7.0,-999.0,81,-99.99,,,0.00,weatherlink.com 1.10,2013-06-21 19:29:00,
2013-06-21 12:59:00,58.9,52.0,30.00,WNW,292,13.0,-999.0,79,-99.99,,,0.00,weatherlink.com 1.10,2013-06-21 19:59:00,
2013-06-21 13:28:00,59.4,53.0,30.00,North,355,11.0,-999.0,79,-99.99,,,0.00,weatherlink.com 1.10,2013-06-21 20:28:00,
2013-06-21 13:59:00,60.1,54.0,29.99,NNW,341,7.0,-999.0,79,-99.99,,,0.00,weatherlink.com 1.10,2013-06-21 20:59:00,
2013-06-21 14:14:00,60.0,53.0,29.99,NNW,340,11.0,-999.0,77,-99.99,,,0.00,weatherlink.com 1.10,2013-06-21 21:14:00,
2013-06-21 14:28:00,60.1,53.0,29.99,NNW,331,9.0,-999.0,76,-99.99,,,0.00,weatherlink.com 1.10,2013-06-21 21:28:00,
2013-06-21 14:59:00,59.6,52.0,30.00,NNW,348,11.0,-999.0,76,-99.99,,,0.00,weatherlink.com 1.10,2013-06-21 21:59:00,
2013-06-21 15:29:00,58.8,52.0,29.99,North,355,5.0,-999.0,78,-99.99,,,0.00,weatherlink.com 1.10,2013-06-21 22:29:00,
2013-06-21 15:45:00,59.9,53.0,29.99,NW,320,11.0,-999.0,77,-99.99,,,0.00,weatherlink.com 1.10,2013-06-21 22:45:00,
2013-06-21 15:59:00,59.9,53.0,29.99,NW,326,19.0,-999.0,78,-99.99,,,0.00,weatherlink.com 1.10,2013-06-21 22:59:00,
2013-06-21 16:14:00,60.7,53.0,29.99,NW,319,15.0,-999.0,75,-99.99,,,0.00,weatherlink.com 1.10,2013-06-21 23:14:00,
2013-06-21 16:29:00,61.4,53.0,29.98,NNE,28,10.0,-999.0,75,-99.99,,,0.00,weatherlink.com 1.10,2013-06-21 23:29:00,
2013-06-21 16:44:00,60.5,53.0,29.98,NNW,342,9.0,-999.0,76,-99.99,,,0.00,weatherlink.com 1.10,2013-06-21 23:44:00,
2013-06-21 16:59:00,60.8,53.0,29.98,North,351,9.0,-999.0,75,-99.99,,,0.00,weatherlink.com 1.10,2013-06-21 23:59:00,
2013-06-21 17:13:00,60.3,53.0,29.98,NNW,348,6.0,-999.0,76,-99.99,,,0.00,weatherlink.com 1.10,2013-06-22 00:13:00,
2013-06-21 17:30:00,60.2,53.0,29.97,North,11,4.0,-999.0,77,-99.99,,,0.00,weatherlink.com 1.10,2013-06-22 00:30:00,
2013-06-21 17:44:00,60.2,53.0,29.97,NNW,331,15.0,-999.0,76,-99.99,,,0.00,weatherlink.com 1.10,2013-06-22 00:44:00,
2013-06-21 18:00:00,60.4,53.0,29.97,NNW,331,12.0,-999.0,76,-99.99,,,0.00,weatherlink.com 1.10,2013-06-22 01:00:00,
2013-06-21 18:14:00,60.6,53.0,29.97,NW,321,11.0,-999.0,75,-99.99,,,0.00,weatherlink.com 1.10,2013-06-22 01:14:00,
2013-06-21 18:29:00,59.9,52.0,29.96,NW,322,10.0,-999.0,76,-99.99,,,0.00,weatherlink.com 1.10,2013-06-22 01:29:00,
2013-06-21 18:44:00,59.9,52.0,29.96,WNW,300,13.0,-999.0,76,-99.99,,,0.00,weatherlink.com 1.10,2013-06-22 01:44:00,
2013-06-21 19:14:00,59.3,52.0,29.95,North,5,10.0,-999.0,76,-99.99,,,0.00,weatherlink.com 1.10,2013-06-22 02:14:00,
2013-06-21 19:29:00,58.5,51.0,29.95,North,355,13.0,-999.0,77,-99.99,,,0.00,weatherlink.com 1.10,2013-06-22 02:29:00,
2013-06-21 19:44:00,56.9,51.0,29.95,North,350,13.0,-999.0,80,-99.99,,,0.00,weatherlink.com 1.10,2013-06-22 02:44:00,
2013-06-21 19:59:00,56.5,51.0,29.95,North,355,8.0,-999.0,81,-99.99,,,0.00,weatherlink.com 1.10,2013-06-22 02:59:00,
2013-06-21 20:15:00,55.4,50.0,29.95,NNW,327,8.0,-999.0,82,-99.99,,,0.00,weatherlink.com 1.10,2013-06-22 03:15:00,
2013-06-21 20:29:00,54.6,50.0,29.95,NNE,32,5.0,-999.0,84,-99.99,,,0.00,weatherlink.com 1.10,2013-06-22 03:29:00,
2013-06-21 20:44:00,53.5,50.0,29.95,North,360,6.0,-999.0,86,-99.99,,,0.00,weatherlink.com 1.10,2013-06-22 03:44:00,
2013-06-21 20:59:00,52.9,49.0,29.95,NW,320,4.0,-999.0,87,-99.99,,,0.00,weatherlink.com 1.10,2013-06-22 03:59:00,
2013-06-21 21:14:00,52.4,49.0,29.95,NNW,337,5.0,-999.0,88,-99.99,,,0.00,weatherlink.com 1.10,2013-06-22 04:14:00,
2013-06-21 21:29:00,51.8,48.0,29.95,North,5,6.0,-999.0,88,-99.99,,,0.00,weatherlink.com 1.10,2013-06-22 04:29:00,
2013-06-21 21:44:00,51.4,48.0,29.95,NNE,20,3.0,-999.0,89,-99.99,,,0.00,weatherlink.com 1.10,2013-06-22 04:44:00,
2013-06-21 22:00:00,51.1,48.0,29.95,North,360,6.0,-999.0,89,-99.99,,,0.00,weatherlink.com 1.10,2013-06-22 05:00:00,
2013-06-21 22:14:00,50.8,48.0,29.95,NNE,30,2.0,-999.0,90,-99.99,,,0.00,weatherlink.com 1.10,2013-06-22 05:14:00,
2013-06-21 22:29:00,50.6,48.0,29.96,North,5,5.0,-999.0,90,-99.99,,,0.00,weatherlink.com 1.10,2013-06-22 05:29:00,
2013-06-21 22:45:00,50.4,48.0,29.95,NNW,347,7.0,-999.0,90,-99.99,,,0.00,weatherlink.com 1.10,2013-06-22 05:45:00,
2013-06-21 23:00:00,50.5,48.0,29.95,NW,313,7.0,-999.0,90,-99.99,,,0.00,weatherlink.com 1.10,2013-06-22 06:00:00,
2013-06-21 23:15:00,50.8,48.0,29.95,North,355,7.0,-999.0,90,-99.99,,,0.00,weatherlink.com 1.10,2013-06-22 06:15:00,
2013-06-21 23:30:00,50.5,47.0,29.96,NNE,13,3.0,-999.0,89,-99.99,,,0.00,weatherlink.com 1.10,2013-06-22 06:30:00,
2013-06-21 23:44:00,50.2,47.0,29.96,NNE,13,5.0,-999.0,90,-99.99,,,0.00,weatherlink.com 1.10,2013-06-22 06:44:00,
2013-06-21 23:59:00,49.9,47.0,29.95,NNE,15,4.0,-999.0,90,-99.99,,,0.00,weatherlink.com 1.10,2013-06-22 06:59:00,